Location: Rotheul
(50.2849°N, 11.2349°E)
Time: 05:44:29
(UTC+01:00)

ISS - Pass Details

Date: 09 November 2018
Orbit: 402 x 408 km, 51.6° (Epoch: 17 November)

Event Time Altitude Azimuth Distance (km) Brightness Sun altitude
Exits shadow 05:15:28 86° 6° (N) 411 -3.9 -19.7°
Maximum altitude 05:15:28 86° 11° (NNE) 411 -3.9 -19.7°
Drops below altitude 10° 05:18:45 10° 104° (ESE) 1,463 0.2 -19.2°
Sets 05:20:50 0° 104° (ESE) 2,324 1.6 -18.9°
